When you browse on this site, cookies collect data to enhance your experience and personalize the content and advertising you see.
Visit our Privacy Policy to learn more. By continuing to use the site, you agree to this use of cookies and data.

Hourly Weather Pinsk

Today, 7 July, Tuesday

Time Temperature Precipitation Wind Pressure Humidity
00:00 +19°C° 0.7 mm 3 mps 742 mmHg 93%
01:00 +19°C° 0.7 mm 4 mps 742 mmHg 93%
02:00 +17°C° 0 mm 5 mps 743 mmHg 90%
03:00 +16°C° 1.2 mm 5 mps 743 mmHg 92%
04:00 +17°C° 1.2 mm 4 mps 743 mmHg 94%
05:00 +16°C° 1.2 mm 3 mps 743 mmHg 95%
06:00 +16°C° 0.9 mm 3 mps 744 mmHg 95%
07:00 +15°C° 0.9 mm 4 mps 744 mmHg 95%
08:00 +15°C° 0.9 mm 4 mps 744 mmHg 94%
09:00 +14°C° 0.1 mm 4 mps 745 mmHg 92%
10:00 +14°C° 0.1 mm 4 mps 745 mmHg 90%
11:00 +14°C° 0.1 mm 4 mps 745 mmHg 88%
12:00 +14°C° 0.1 mm 3 mps 745 mmHg 87%
13:00 +16°C° 0.1 mm 3 mps 746 mmHg 85%
14:00 +16°C° 0.1 mm 2 mps 746 mmHg 84%
15:00 +16°C° 0.7 mm 2 mps 746 mmHg 85%
16:00 +16°C° 0.7 mm 2 mps 746 mmHg 85%
17:00 +17°C° 0.7 mm 2 mps 746 mmHg 86%
18:00 +16°C° 0.1 mm 2 mps 746 mmHg 87%
19:00 +16°C° 0.1 mm 2 mps 746 mmHg 87%
20:00 +15°C° 0.1 mm 2 mps 746 mmHg 87%
21:00 +14°C° 0 mm 3 mps 746 mmHg 88%
22:00 +13°C° 0 mm 3 mps 747 mmHg 89%
23:00 +12°C° 0 mm 4 mps 747 mmHg 90%

Tomorrow, 8 July, Wednesday

Time Temperature Precipitation Wind Pressure Humidity
00:00 +11°C° 0 mm 3 mps 747 mmHg 91%
01:00 +11°C° 0 mm 3 mps 747 mmHg 93%
02:00 +10°C° 0 mm 3 mps 747 mmHg 94%
03:00 +9°C° 0 mm 3 mps 747 mmHg 94%
04:00 +9°C° 0 mm 3 mps 747 mmHg 94%
05:00 +9°C° 0 mm 3 mps 747 mmHg 95%
06:00 +10°C° 0 mm 3 mps 748 mmHg 90%
07:00 +12°C° 0 mm 3 mps 748 mmHg 85%
08:00 +14°C° 0 mm 3 mps 748 mmHg 80%
09:00 +15°C° 0.1 mm 4 mps 748 mmHg 75%
10:00 +17°C° 0.1 mm 4 mps 748 mmHg 69%
11:00 +18°C° 0.1 mm 4 mps 748 mmHg 64%
12:00 +19°C° 0 mm 5 mps 748 mmHg 63%
13:00 +19°C° 0 mm 5 mps 748 mmHg 61%
14:00 +20°C° 0 mm 5 mps 748 mmHg 59%
15:00 +19°C° 0.2 mm 4 mps 748 mmHg 66%
16:00 +18°C° 0.2 mm 4 mps 748 mmHg 73%
17:00 +17°C° 0.2 mm 4 mps 748 mmHg 80%
18:00 +17°C° 0.1 mm 4 mps 748 mmHg 83%
19:00 +16°C° 0.1 mm 3 mps 748 mmHg 85%
20:00 +14°C° 0.1 mm 3 mps 748 mmHg 88%
21:00 +14°C° 0 mm 3 mps 748 mmHg 89%
22:00 +13°C° 0 mm 3 mps 748 mmHg 89%
23:00 +13°C° 0 mm 3 mps 749 mmHg 90%

Day after tomorrow, 9 July, Thursday

Time Temperature Precipitation Wind Pressure Humidity
00:00 +12°C° 0.1 mm 3 mps 749 mmHg 91%
01:00 +12°C° 0.1 mm 3 mps 749 mmHg 92%
02:00 +12°C° 0.1 mm 3 mps 749 mmHg 94%
03:00 +12°C° 0 mm 3 mps 749 mmHg 94%
04:00 +12°C° 0 mm 3 mps 749 mmHg 95%
05:00 +11°C° 0 mm 3 mps 750 mmHg 96%
06:00 +12°C° 0 mm 3 mps 750 mmHg 93%
07:00 +13°C° 0 mm 3 mps 750 mmHg 90%
08:00 +14°C° 0 mm 3 mps 750 mmHg 87%
09:00 +16°C° 0.1 mm 3 mps 751 mmHg 82%
10:00 +17°C° 0.1 mm 3 mps 751 mmHg 77%
11:00 +18°C° 0.1 mm 4 mps 751 mmHg 73%
12:00 +19°C° 0.2 mm 4 mps 751 mmHg 71%
13:00 +20°C° 0.2 mm 4 mps 751 mmHg 69%
14:00 +20°C° 0.2 mm 4 mps 751 mmHg 67%
15:00 +20°C° 0.1 mm 3 mps 751 mmHg 66%
16:00 +20°C° 0.1 mm 3 mps 751 mmHg 66%
17:00 +20°C° 0.1 mm 3 mps 751 mmHg 66%
18:00 +19°C° 0 mm 2 mps 751 mmHg 71%
19:00 +18°C° 0 mm 2 mps 751 mmHg 77%
20:00 +18°C° 0 mm 1 mps 751 mmHg 83%
21:00 +16°C° 0 mm 1 mps 751 mmHg 85%
22:00 +15°C° 0 mm 1 mps 751 mmHg 87%
23:00 +14°C° 0 mm 1 mps 752 mmHg 89%

10 July, Friday

Time Temperature Precipitation Wind Pressure Humidity
00:00 +13°C° 0 mm 1 mps 752 mmHg 90%
01:00 +13°C° 0 mm 1 mps 752 mmHg 91%
02:00 +13°C° 0 mm 1 mps 752 mmHg 92%
03:00 +13°C° 0 mm 1 mps 752 mmHg 93%
04:00 +13°C° 0 mm 2 mps 752 mmHg 94%
05:00 +13°C° 0 mm 2 mps 751 mmHg 95%
06:00 +14°C° 0 mm 2 mps 751 mmHg 91%
07:00 +16°C° 0 mm 3 mps 751 mmHg 86%
08:00 +18°C° 0 mm 3 mps 751 mmHg 82%
09:00 +19°C° 0 mm 3 mps 751 mmHg 79%
10:00 +20°C° 0 mm 4 mps 751 mmHg 75%
11:00 +22°C° 0 mm 4 mps 751 mmHg 72%
12:00 +22°C° 0 mm 4 mps 750 mmHg 71%
13:00 +23°C° 0 mm 4 mps 750 mmHg 71%
14:00 +25°C° 0 mm 4 mps 750 mmHg 71%
15:00 +25°C° 0.6 mm 4 mps 749 mmHg 73%
16:00 +25°C° 0.6 mm 4 mps 749 mmHg 75%
17:00 +25°C° 0.6 mm 4 mps 749 mmHg 77%
18:00 +23°C° 0.6 mm 4 mps 748 mmHg 81%
19:00 +22°C° 0.6 mm 4 mps 748 mmHg 85%
20:00 +21°C° 0.6 mm 4 mps 748 mmHg 88%
21:00 +21°C° 0.1 mm 4 mps 748 mmHg 90%
22:00 +20°C° 0.1 mm 4 mps 748 mmHg 91%
23:00 +20°C° 0.1 mm 4 mps 748 mmHg 93%

11 July, Saturday

Time Temperature Precipitation Wind Pressure Humidity
00:00 +20°C° 0.1 mm 4 mps 748 mmHg 93%
01:00 +19°C° 0.1 mm 4 mps 748 mmHg 94%
02:00 +19°C° 0.1 mm 4 mps 747 mmHg 94%
03:00 +19°C° 0.1 mm 4 mps 748 mmHg 95%
04:00 +18°C° 0.1 mm 3 mps 748 mmHg 96%
05:00 +18°C° 0.1 mm 3 mps 748 mmHg 96%
06:00 +19°C° 0 mm 3 mps 748 mmHg 93%
07:00 +19°C° 0 mm 4 mps 748 mmHg 90%
08:00 +20°C° 0 mm 5 mps 749 mmHg 86%
09:00 +20°C° 0 mm 5 mps 749 mmHg 81%
10:00 +19°C° 0 mm 4 mps 750 mmHg 75%
11:00 +19°C° 0 mm 4 mps 750 mmHg 69%
12:00 +19°C° 0 mm 4 mps 750 mmHg 68%
13:00 +19°C° 0 mm 3 mps 750 mmHg 67%
14:00 +19°C° 0 mm 3 mps 751 mmHg 67%
15:00 +18°C° 0 mm 3 mps 751 mmHg 70%
16:00 +17°C° 0 mm 3 mps 751 mmHg 73%
17:00 +16°C° 0 mm 3 mps 751 mmHg 77%
18:00 +14°C° 0 mm 3 mps 751 mmHg 78%
19:00 +14°C° 0 mm 3 mps 751 mmHg 80%
20:00 +14°C° 0 mm 3 mps 751 mmHg 82%
21:00 +13°C° 0.2 mm 3 mps 751 mmHg 84%
22:00 +13°C° 0.2 mm 3 mps 751 mmHg 87%
23:00 +13°C° 0.2 mm 3 mps 751 mmHg 89%

12 July, Sunday

Time Temperature Precipitation Wind Pressure Humidity
00:00 +13°C° 1.3 mm 3 mps 751 mmHg 91%
01:00 +13°C° 1.3 mm 2 mps 751 mmHg 94%
02:00 +13°C° 1.3 mm 2 mps 751 mmHg 96%
03:00 +13°C° 1.1 mm 1 mps 751 mmHg 96%
04:00 +12°C° 1.1 mm 1 mps 751 mmHg 96%
05:00 +12°C° 1.1 mm 1 mps 751 mmHg 96%
06:00 +13°C° 0.2 mm 1 mps 751 mmHg 93%
07:00 +13°C° 0.2 mm 1 mps 752 mmHg 91%
08:00 +14°C° 0.2 mm 1 mps 752 mmHg 89%
09:00 +15°C° 0.1 mm 2 mps 752 mmHg 82%
10:00 +17°C° 0.1 mm 2 mps 752 mmHg 74%
11:00 +18°C° 0.1 mm 2 mps 752 mmHg 67%
12:00 +18°C° 0.3 mm 3 mps 752 mmHg 68%
13:00 +18°C° 0.3 mm 4 mps 752 mmHg 69%
14:00 +18°C° 0.3 mm 4 mps 752 mmHg 70%
15:00 +18°C° 0.4 mm 4 mps 751 mmHg 71%
16:00 +18°C° 0.4 mm 4 mps 751 mmHg 72%
17:00 +18°C° 0.4 mm 4 mps 751 mmHg 73%
18:00 +17°C° 0.3 mm 4 mps 751 mmHg 77%
19:00 +16°C° 0.3 mm 3 mps 751 mmHg 81%
20:00 +14°C° 0.3 mm 3 mps 751 mmHg 85%
21:00 +13°C° 0 mm 3 mps 751 mmHg 87%
22:00 +12°C° 0 mm 3 mps 751 mmHg 90%
23:00 +11°C° 0 mm 3 mps 751 mmHg 92%
Show more